Regional Weather Roundup
Issued by NWS Grand Forks, ND

Home | Current Version | Previous Version | Text Only | Print | Product List | Glossary Off
Versions: 1 2 3 4 5 6 7 8 9 10 11 12 13 14 15 16 17 18 19 20 21 22 23 24 25 26 27 28 29 30 31 32 33 34 35 36 37 38 39 40 41 42 43 44 45 46 47 48 49 50

000
ASUS43 KFGF 241231
RWRFGF
PRAIRIE TO PINES  WEATHER ROUNDUP
NATIONAL WEATHER SERVICE EASTERN NORTH DAKOTA/GRAND FORKS ND
700 AM CDT SUN JUL 24 2016

 **SATELLITE DATA USED TO AUGMENT SKY COVER AT AUTOMATED STATIONS**
 *****  WEATHER ACROSS EASTERN NORTH DAKOTA  *****

CITY           SKY/WX    TMP DP  RH WIND       PRES   REMARKS
GRAND FORKS    PTCLDY    62  59  90 W6        29.82R
6HR MIN TEMP:  62; 6HR MAX TEMP:  67;

GRAND FRKS AFB CLEAR     64  58  82 W8        29.84R
GRAND FRKS NWS   N/A     63 N/A N/A NW7         N/A
DEVILS LAKE    CLEAR     63  59  87 W15       29.89R
6HR MIN TEMP:  63; 6HR MAX TEMP:  67;

FARGO          CLEAR     64  59  83 W9        29.86R
WAHPETON ARPT  SUNNY     63  57  82 NW14      29.88S
$$

 ***** WEATHER ACROSS CENTRAL AND WESTERN NORTH DAKOTA  *****

CITY           SKY/WX    TMP DP  RH WIND       PRES   REMARKS
BISMARCK       CLEAR     61  56  83 NW7       30.00R
6HR MIN TEMP:  60; 6HR MAX TEMP:  68;

MINOT          CLEAR     65  55  70 W12       29.94R
6HR MIN TEMP:  65; 6HR MAX TEMP:  69;

JAMESTOWN      CLEAR     63  59  87 NW9       29.92R
6HR MIN TEMP:  62; 6HR MAX TEMP:  67;

MINOT AFB      CLEAR     60  56  87 W12       29.93R
GARRISON         N/A     58  57  97 W7        29.99R
WILLISTON      CLEAR     57  52  83 SE3       30.02R
6HR MIN TEMP:  57; 6HR MAX TEMP:  63;

DICKINSON      CLEAR     52  49  89 W8        30.05R
6HR MIN TEMP:  50; 6HR MAX TEMP:  56;

HETTINGER      MOCLDY    52  48  86 NW6       30.08S
6HR MIN TEMP:  49; 6HR MAX TEMP:  58;

$$

 *****  OTHER AIRPORT OBSERVATIONS IN OUR AREA  *****

CITY           SKY/WX    TMP DP  RH WIND       PRES   REMARKS
WALHALLA       FAIR      63  59  88 W9G22     29.80R
GRAFTON AIRPOR FAIR      64  61  88 W13       29.83R
VALLEY CITY AR FAIR      64  64 100 NW14      29.93R
CANDO          FAIR      61  61 100 W13       29.90R
CAVALIER APRT  FAIR      63  57  82 W10       29.80R
GWINNER        FAIR      66  61  82 W12G18    29.93R
SHEYENNE NWR     N/A     64  59  85 NW7       29.95S
ROLLA            N/A     63  57  82 NW10      29.89R
 ***** THE ABOVE OBSERVATIONS ARE NON NWS ARE NOT QUALITY
       CONTROLLED AND MAY MIS-REPORT RAIN FOR SNOW...
$$

  *****  WEATHER ACROSS NORTHERN MINNESOTA  *****

CITY           SKY/WX    TMP DP  RH WIND       PRES   REMARKS
FLAG ISLAND    PTSUNNY   64  61  88 W17G24    29.71R
WARROAD        SUNNY     63  57  82 W10       29.75R
ROSEAU         SUNNY     64  59  82 W9        29.76R
HALLOCK        CLEAR     63  61  94 W7        29.79R
THF RVR FALLS  CLEAR     62  60  93 W9        29.82R
6HR MIN TEMP:  61; 6HR MAX TEMP:  69;

BAUDETTE       PTSUNNY   63  60  90 NW13G21   29.74R
6HR MIN TEMP:  63; 6HR MAX TEMP:  71;

WASKISH        MOSUNNY   66  61  82 W14G21    29.77R
CROOKSTON      CLEAR     63  61  94 NW10      29.83S
STEPHEN NDAWN    N/A    N/A N/A N/A W6          N/A
GREENBUSH NDAW   N/A    N/A N/A N/A W7          N/A
$$
  *****  WEATHER ACROSS CENTRAL AND WEST MINNESOTA  *****

CITY           SKY/WX    TMP DP  RH WIND       PRES   REMARKS
FOSSTON        CLEAR     63  59  88 W12       29.84R
BEMIDJI        MOSUNNY   64  59  82 W10G16    29.80R
PARK RAPIDS    CLEAR     65  61  87 W9        29.82R
6HR MIN TEMP:  64; 6HR MAX TEMP:  69;

ELBOW LAKE     FAIR      62  60  94 NW7       29.89R
WADENA         CLEAR     64  61  88 W9        29.84R
DETROIT LAKES  CLEAR     63  59  88 NW15      29.87R
MOORHEAD       CLEAR     64  61  88 W12G18    29.88R
FERGUS FALLS   CLEAR     63  63 100 NW8       29.88S
MORRIS MN      CLEAR     66  63  88 NW10      29.88R
STAPLES        CLEAR     64  63  94 W13G18    29.83R
$$
  *****  WEATHER ELSEWHERE ACROSS MINNESOTA  *****

CITY           SKY/WX    TMP DP  RH WIND       PRES   REMARKS
DULUTH         PTSUNNY   67  66  97 W12       29.76R FOG
6HR MIN TEMP:  62; 6HR MAX TEMP:  68; 6HR PCP:  0.03;

INTRNTL FALLS  PTSUNNY   68  63  84 W8G18     29.71R
6HR MIN TEMP:  65; 6HR MAX TEMP:  71; 6HR PCP: TRACE;

ELY            CLOUDY    66  66 100 W6        29.73R
CLOQUET        PTSUNNY   66  64  94 CALM      29.77R
WHEATON        CLEAR     66  63  88 W5        29.91R
BRAINERD       SUNNY     69  66  90 W7        29.81R
6HR MIN TEMP:  66; 6HR MAX TEMP:  69; 6HR PCP: TRACE;

HIBBING        CLOUDY    65  65 100 W3        29.76R
6HR MIN TEMP:  63; 6HR MAX TEMP:  65; 6HR PCP:  0.02;

ALEXANDRIA     CLEAR     66  61  84 NW9       29.88R
6HR MIN TEMP:  66; 6HR MAX TEMP:  71;

SAINT CLOUD    SUNNY     70  69  97 NW7       29.81R
6HR MIN TEMP:  69; 6HR MAX TEMP:  74;

MINNEAPOLIS    MOSUNNY   74  70  87 NW3       29.81R
6HR MIN TEMP:  73; 6HR MAX TEMP:  77; 6HR PCP: TRACE;

$$

  *****  WEATHER ACROSS SOUTH DAKOTA  *****

CITY           SKY/WX    TMP DP  RH WIND       PRES   REMARKS
SIOUX FALLS    CLOUDY    69  65  86 NW7       29.93R
6HR MIN TEMP:  67; 6HR MAX TEMP:  78;

BROOKINGS      PTCLDY    66  64  94 NW9       29.94  FOG
WATERTOWN      CLEAR     66  59  78 NW12      29.94R
6HR MIN TEMP:  66; 6HR MAX TEMP:  73;

HURON          PTCLDY    62  58  86 CALM      29.95R
6HR MIN TEMP:  60; 6HR MAX TEMP:  67;

SISSETON         N/A     66  59  78 NW10      29.90R
ABERDEEN       CLEAR     65  57  75 NW14      29.93F
6HR MIN TEMP:  60; 6HR MAX TEMP:  69;

MITCHELL       MOCLDY    65  60  84 NW7       29.95R
PIERRE         CLOUDY    67  56  67 W5        30.05R
6HR MIN TEMP:  63; 6HR MAX TEMP:  70;

MOBRIDGE       CLEAR     63  56  78 N7        29.98R
RAPID CITY     CLOUDY    61  53  75 NE10      30.12R
6HR MIN TEMP:  58; 6HR MAX TEMP:  67; 6HR PCP:  0.08;

$$

  *****  SOME WEATHER IN NEARBY STATES *****

CITY           SKY/WX    TMP DP  RH WIND       PRES   REMARKS
GLASGOW MT     CLEAR     56  53  90 VRB6      30.03R
6HR MIN TEMP:  56; 6HR MAX TEMP:  64;

GREAT FALLS MT CLEAR     48  39  71 SW9       30.12S
6HR MIN TEMP:  48; 6HR MAX TEMP:  62;

CHEYENNE WY    MOCLDY    67  46  47 SE13      30.17F
6HR MIN TEMP:  64; 6HR MAX TEMP:  75; 6HR PCP: TRACE;

SCOTTSBLUFF NE PTCLDY    62  56  80 CALM      30.10R
6HR MIN TEMP:  62; 6HR MAX TEMP:  69;

OMAHA NE       PTCLDY    77  74  90 N7        29.88R
6HR MIN TEMP:  77; 6HR MAX TEMP:  85;

DES MOINES IA  PTCLDY    80  74  81 W5        29.84R
6HR MIN TEMP:  79; 6HR MAX TEMP:  83;

DAVENPORT IA   SUNNY     79  75  87 S8        29.86F
6HR MIN TEMP:  77; 6HR MAX TEMP:  81;

CHICAGO IL     MOSUNNY   73  70  90 S12       29.91R
6HR MIN TEMP:  71; 6HR MAX TEMP:  73; 6HR PCP:  0.01;

EAU CLAIRE WI  CLOUDY    71  70  96 CALM      29.77S
6HR MIN TEMP:  70; 6HR MAX TEMP:  71; 6HR PCP:  0.01;

LA CROSSE WI   PTSUNNY   78  74  87 SE5       29.78R
6HR MIN TEMP:  74; 6HR MAX TEMP:  77;

$$

  *****  SOME NATIONAL WEATHER *****

CITY           SKY/WX    TMP DP  RH WIND       PRES   REMARKS
LA GUARDIA NY  MOSUNNY   80  61  52 NE3       29.98R
6HR MIN TEMP:  76; 6HR MAX TEMP:  80;

RALEIGH NC     PTSUNNY   78  75  90 SW6       30.02S
6HR MIN TEMP:  74; 6HR MAX TEMP:  78;

ATLANTA GA     MOSUNNY   79  73  82 CALM      30.06R
6HR MIN TEMP:  75; 6HR MAX TEMP:  79;

NEW ORLEANS LA MOCLDY    82  77  84 W3        29.97R HX  90
6HR MIN TEMP:  81; 6HR MAX TEMP:  85;

OKLAHOMA CITY  PTCLDY    73  71  93 S7        29.95R
6HR MIN TEMP:  72; 6HR MAX TEMP:  78;

ALBUQUERQUE NM MOCLDY    78  50  37 SE6       30.10F
6HR MIN TEMP:  76; 6HR MAX TEMP:  86; 6HR PCP: TRACE;

SALT LAKE CITY PTCLDY    64  40  41 SE9       30.07R
6HR MIN TEMP:  64; 6HR MAX TEMP:  76;

LOS ANGELES CA PTCLDY    69  64  84 E3        29.83R
6HR MIN TEMP:  69; 6HR MC1F1C2F2C3F3C4F4C5F5C6F6C7F7C8F8C9F9CaFaCbFbCcFcCd!



USA.gov is the U.S. government's official web portal to all federal, state and local government web resources and services.